Location: Fenile
(46.0500°N, 9.5500°E)
Time: 13:17:45
(UTC+00:00)

GP-B - Pass Details

Date: 03 March 2021
Orbit: 631 x 635 km, 89.8° (Epoch: 16 April)

Event Time Altitude Azimuth Distance (km) Brightness Sun altitude
Rises 17:44:50 0° 145° (SE) 2,919 6.2 -6.6°
Reaches altitude 10° 17:47:21 10° 132° (SE) 2,017 5.3 -7.1°
Maximum altitude 17:50:57 25° 77° (ENE) 1,291 4.1 -7.7°
Drops below altitude 10° 17:54:35 10° 23° (NNE) 2,031 5.5 -8.3°
Sets 17:57:06 0° 10° (N) 2,945 6.4 -8.8°
